Terminal Aerodrome Forecast
Issued by NWS St Louis, MO

Home | Current Version | Previous Version | Text Only | Print | Product List | Glossary On
Versions: 1 2 3 4 5 6 7 8 9 10 11 12 13 14 15 16 17 18 19 20 21 22 23 24 25 26 27 28
000
FTUS43 KLSX 232100 AAA
TAFSTL
TAF AMD
KSTL 232106Z 2321/2424 13009KT 2SM -RA BR BKN008
     FM240200 18008KT 3SM BR OVC008
     FM240700 26014KT 4SM -RA BR OVC008
     FM241200 28018G28KT P6SM OVC015=

USA.gov is the U.S. government's official web portal to all federal, state and local government web resources and services.